{"data":{"norad_id":60501,"epoch":"2026-05-24T23:01:36.059232Z","epoch_age_seconds":75595,"freshness":"FRESH","line1":"1 60501U 24149AK  26144.95944513  .00016330  00000+0  38345-3 0  9997","line2":"2 60501  97.3698 228.8586 0003242  24.3661 335.7739 15.42102309 98773","mean_motion":15.42102309,"eccentricity":0.0003242,"inclination_deg":97.3698,"raan_deg":228.8586,"arg_perigee_deg":24.3661,"mean_anomaly_deg":335.7739,"bstar":0.00038345,"rev_number":9877,"period_min":93.379018473411,"perigee_km":437.69528374738,"apogee_km":442.11610262964,"semimajor_km":6818.0426931885,"source":"CELESTRAK","updated_at":"2026-05-25T13:38:13.305365Z"}}